Location: Vinland
(47.7731°N, 122.6974°W)
Time: 03:22:05
(UTC+00:00)

S-56A Canister/Altair - Pass Details

Date: 30 March 2023
Orbit: 639 x 2492 km, 38.9° (Epoch: 31 May)

Event Time Altitude Azimuth Distance (km) Brightness Sun altitude
Rises 05:43:32 0° 272° (W) 5,375 12.5 -28.8°
Reaches altitude 10° 05:46:51 10° 267° (W) 4,578 11.9 -29.2°
Maximum altitude 05:59:33 52° 197° (SSW) 2,865 10.1 -30.6°
Enters shadow 06:03:02 46° 163° (SSE) 3,089 10.0 -30.9°
